TimeEDT,TemperatureF,Dew PointF,Humidity,Sea Level PressureIn,VisibilityMPH,Wind Direction,Wind SpeedMPH,Gust SpeedMPH,PrecipitationIn,Events,Conditions,WindDirDegrees,DateUTC
12:52 AM,42.1,39.0,89,30.21,10.0,Calm,Calm,-,N/A,,Clear,0,2013-06-20 04:52:00
1:52 AM,39.9,37.0,89,30.22,10.0,Calm,Calm,-,N/A,,Clear,0,2013-06-20 05:52:00
2:52 AM,37.0,35.1,93,30.23,10.0,Calm,Calm,-,N/A,,Clear,0,2013-06-20 06:52:00
3:52 AM,37.9,34.0,86,30.23,10.0,Calm,Calm,-,N/A,,Clear,0,2013-06-20 07:52:00
4:20 AM,37.4,33.8,87,30.23,10.0,Calm,Calm,-,N/A,,Scattered Clouds,0,2013-06-20 08:20:00
4:52 AM,36.0,33.1,89,30.26,10.0,Calm,Calm,-,N/A,,Clear,0,2013-06-20 08:52:00
5:19 AM,35.6,33.8,93,30.25,10.0,Calm,Calm,-,N/A,,Partly Cloudy,0,2013-06-20 09:19:00
5:52 AM,36.0,33.1,89,30.27,10.0,Calm,Calm,-,N/A,,Mostly Cloudy,0,2013-06-20 09:52:00
6:14 AM,37.4,35.6,93,30.27,1.8,Calm,Calm,-,N/A,,Overcast,0,2013-06-20 10:14:00
6:28 AM,37.4,35.6,93,30.27,3.0,Calm,Calm,-,N/A,,Overcast,0,2013-06-20 10:28:00
6:52 AM,41.0,39.0,93,30.29,5.0,Calm,Calm,-,N/A,,Scattered Clouds,0,2013-06-20 10:52:00
7:52 AM,50.0,44.1,80,30.29,10.0,Calm,Calm,-,N/A,,Clear,0,2013-06-20 11:52:00
8:52 AM,57.9,45.0,62,30.28,10.0,Calm,Calm,-,N/A,,Clear,0,2013-06-20 12:52:00
9:52 AM,64.0,46.0,52,30.27,10.0,Calm,Calm,-,N/A,,Clear,0,2013-06-20 13:52:00
10:52 AM,66.9,43.0,42,30.27,10.0,Calm,Calm,-,N/A,,Clear,0,2013-06-20 14:52:00
11:52 AM,69.1,39.0,33,30.26,10.0,WNW,8.1,-,N/A,,Clear,290,2013-06-20 15:52:00
12:52 PM,70.0,39.9,33,30.25,10.0,WSW,9.2,-,N/A,,Clear,240,2013-06-20 16:52:00
1:52 PM,71.1,41.0,34,30.25,10.0,Variable,5.8,-,N/A,,Clear,0,2013-06-20 17:52:00
2:52 PM,73.0,43.0,34,30.24,10.0,NNW,5.8,-,N/A,,Clear,340,2013-06-20 18:52:00
3:52 PM,73.0,43.0,34,30.23,10.0,SW,6.9,-,N/A,,Clear,220,2013-06-20 19:52:00
4:52 PM,73.0,44.1,35,30.22,10.0,WSW,8.1,-,N/A,,Partly Cloudy,240,2013-06-20 20:52:00
5:52 PM,73.0,45.0,37,30.21,10.0,Variable,6.9,-,N/A,,Clear,0,2013-06-20 21:52:00
6:52 PM,71.1,45.0,39,30.21,10.0,West,4.6,-,N/A,,Clear,280,2013-06-20 22:52:00
7:52 PM,68.0,48.0,49,30.20,10.0,Calm,Calm,-,N/A,,Clear,0,2013-06-20 23:52:00
8:52 PM,57.9,50.0,75,30.21,10.0,Calm,Calm,-,N/A,,Clear,0,2013-06-21 00:52:00
9:52 PM,55.0,48.9,80,30.22,10.0,Calm,Calm,-,N/A,,Clear,0,2013-06-21 01:52:00
10:52 PM,51.1,46.9,86,30.23,10.0,Calm,Calm,-,N/A,,Clear,0,2013-06-21 02:52:00
11:52 PM,48.9,45.0,86,30.24,10.0,Calm,Calm,-,N/A,,Clear,0,2013-06-21 03:52:00